Regional Weather Roundup
Issued by NWS

Home | Current Version | Previous Version | Text Only | Print | Product List | Glossary Off
Versions: 1 2 3 4 5 6 7 8 9 10 11 12 13 14 15 16 17 18 19 20 21 22 23 24 25 26 27 28 29 30 31 32 33 34 35 36 37 38 39 40 41 42 43 44 45 46 47 48 49 50

000
ASUS43 KFSD 281202
RWRSD

WEATHER ROUNDUP FOR SOUTH DAKOTA
NATIONAL WEATHER SERVICE SIOUX FALLS SD
700 AM CDT WED SEP 28 2016

NOTE: "FAIR" INDICATES FEW OR NO CLOUDS BELOW 12,000 FEET WITH NO
SIGNIFICANT WEATHER AND/OR OBSTRUCTIONS TO VISIBILITY.


SDZ001>005-009-010-012>017-281300-
NORTHWEST AND NORTH CENTRAL SOUTH DAKOTA

CITY           SKY/WX    TMP DP  RH WIND       PRES   REMARKS
BUFFALO          N/A     54  44  69 W6        30.10R
FAITH            N/A     50  43  77 SE10      30.17R
MOBRIDGE       CLOUDY    45  39  79 E7        30.17R
$$

SDZ012>016-024>037-041>051-057-063-072>074-281300-
SOUTHWEST AND SOUTH CENTRAL SOUTH DAKOTA

CITY           SKY/WX    TMP DP  RH WIND       PRES   REMARKS
RAPID CTY ARPT CLEAR     53  40  61 NW10      30.17R
PIERRE         CLOUDY    40  35  83 E3        30.16R
CUSTER         CLEAR     49  35  58 CALM      30.30R
ELLSWORTH AFB  CLEAR     49  41  72 W7        30.17R
PHILIP         CLEAR     39  38  96 W3        30.17R
PINE RIDGE     CLEAR     37  36  96 CALM      30.20R
WINNER         FAIR      47  42  83 CALM      30.16R
$$

SDZ004>011-016>023-039-040-281300-
NORTHEAST SOUTH DAKOTA

CITY           SKY/WX    TMP DP  RH WIND       PRES   REMARKS
ABERDEEN       CLOUDY    39  36  89 NW6       30.18R
WATERTOWN      CLOUDY    38  36  92 N7        30.15R
SISSETON         N/A     38  36  92 N7        30.17R
$$

SDZ017-020-022-023-036>040-048>070-281300-
SOUTHEAST SOUTH DAKOTA

CITY           SKY/WX    TMP DP  RH WIND       PRES   REMARKS
SIOUX FALLS    CLOUDY    44  42  93 CALM      30.12R
HURON          CLOUDY    41  40  96 N8        30.16R
CHAMBERLAIN    CLOUDY    41  37  86 CALM      30.17R
MITCHELL       CLOUDY    40  38  93 NW6       30.16R
YANKTON        CLEAR     41  37  87 NW9       30.12R
$$

ABBREVIATIONS USED IN REMARKS
   TC - TEMPERATURE IN CELSIUS
  WCI - WIND CHILL INDEX
   HX - HEAT INDEX
  VSB - VISIBILITY





USA.gov is the U.S. government's official web portal to all federal, state and local government web resources and services.